Location: Newark
(48.1333°N, 17.1000°E)
Time: 02:36:27
(UTC+00:00)

N. Korean satellite - Pass Details

Date: 27 January 2020
Orbit: 456 x 505 km, 97.2° (Epoch: 26 February)

Event Time Altitude Azimuth Distance (km) Brightness Sun altitude
Rises 04:50:24 0° 11° (NNE) 2,539 10.2 -16.0°
Reaches altitude 10° 04:52:27 10° 11° (N) 1,664 9.3 -15.7°
Maximum altitude 04:56:02 84° 284° (WNW) 494 6.4 -15.1°
Drops below altitude 10° 04:59:39 10° 196° (SSW) 1,677 9.2 -14.5°
Sets 05:01:43 0° 196° (SSW) 2,561 10.2 -14.1°
